Tracking 30743 objects as of 21-Jun-2025
HD Live streaming from Space Station
objects crossing your sky now

NOAA 16 DEB

Track NOAA 16 DEB now!
10-day predictions


NORAD ID: 41416
Int'l Code: 2000-055KV
Perigee: 757.2 km
Apogee: 801.6 km
Inclination: 98.8 °
Period: 100.3 minutes
Semi major axis: 7150 km
RCS: Unknown
Launch date: September 21, 2000
Source: United States (US)
Launch site: AIR FORCE WESTERN TEST RANGE (AFWTR)

Note: This is SATELLITE DEBRIS
Your satellite tracking list
Your tracking list is empty




NASA's NSSDC Master Catalog

Two Line Element Set (TLE):
1 41416U 00055KV  25170.53105463  .00004391  00000-0  15225-2 0  9992
2 41416  98.7668 273.5334 0031054  96.6803 263.7918 14.35845765482697
Source of the keplerian elements: AFSPC